Petersburg, AK

5:23 AM AKST on February 22, 2017 (GMT -0900)
Johnson Petersburg

Weather History for PAPG - November, 2012

Change the Weather History Date:

Sunday, November 11, 2012

  Actual Average Record
Temperature  
Mean Temperature 36 °F -  
Max Temperature 39 °F 39 °F 51 °F (1987)
Min Temperature 33 °F 31 °F 18 °F (1985)
Degree Days  
Heating Degree Days 29    
Moisture  
Dew Point 33 °F    
Average Humidity 89    
Maximum Humidity 100    
Minimum Humidity 75    
Precipitation  
Precipitation 0.00 in - - ()
Sea Level Pressure  
Sea Level Pressure 29.76 in    
Wind  
Wind Speed 5 mph (East)    
Max Wind Speed 12 mph    
Max Gust Speed 20 mph    
Visibility 7 miles    
Events      
Averages and records for this station are not official NWS values.
T = Trace of Precipitation, MM = Missing Value Source: NWS Daily Summary

Daily Weather History Graph

Daily Weather History Graph

Search for Another Location

Airport or City:

Trip Planner

Search our weather history database for the weather conditions in past years. The results will help you decide how hot, cold, wet, or windy it might be!

Date:

Astronomy

Nov. 11, 2012 Rise Set
Actual Time 7:25 AM AKST 3:46 PM AKST
Civil Twilight 6:42 AM AKST 4:28 PM AKST
Nautical Twilight 5:55 AM AKST 5:15 PM AKST
Astronomical Twilight 5:11 AM AKST 5:59 PM AKST
Moon 4:24 AM AKST (11/11) 2:32 PM AKST (11/11)
Length of Visible Light 9h 46m
Length of Day
8h 21m
Waning Crescent, 6% of the Moon is Illuminated
Nov 11
Waning Crescent
Nov 13
New
Nov 20
First Quarter
Nov 28
Full
Dec 6
Last Quarter

Hourly Weather History & Observations

Time (AKST) Temp. Windchill Dew Point Humidity Pressure Visibility Wind Dir Wind Speed Gust Speed Precip Events Conditions
12:16 AM 35.6 °F 29.9 °F 28.4 °F 75% 29.84 in 10.0 mi NE 6.9 mph - N/A   Overcast
12:36 AM 35.6 °F 29.9 °F 28.4 °F 75% 29.83 in 7.0 mi SSE 6.9 mph - N/A   Overcast
12:56 AM 35.6 °F 28.6 °F 30.2 °F 81% 29.83 in 9.0 mi ESE 9.2 mph - N/A   Overcast
1:16 AM 35.6 °F 29.9 °F 30.2 °F 81% 29.82 in 10.0 mi ENE 6.9 mph - N/A   Overcast
1:36 AM 35.6 °F 30.7 °F 30.2 °F 81% 29.81 in 9.0 mi East 5.8 mph - N/A   Overcast
1:56 AM 35.6 °F 28.6 °F 30.2 °F 81% 29.80 in 10.0 mi ESE 9.2 mph - N/A   Overcast
2:36 AM 35.6 °F 30.7 °F 32.0 °F 87% 29.79 in 5.0 mi East 5.8 mph - N/A   Overcast
2:56 AM 35.6 °F 28.6 °F 32.0 °F 87% 29.79 in 8.0 mi NE 9.2 mph - N/A   Overcast
3:16 AM 35.6 °F 28.6 °F 32.0 °F 87% 29.78 in 5.0 mi NE 9.2 mph - N/A   Overcast
3:36 AM 35.6 °F 30.7 °F 32.0 °F 87% 29.77 in 5.0 mi NE 5.8 mph - N/A   Overcast
3:56 AM 35.6 °F 30.7 °F 32.0 °F 87% 29.77 in 10.0 mi East 5.8 mph - N/A   Overcast
4:36 AM 35.6 °F 28.6 °F 30.2 °F 81% 29.76 in 9.0 mi ENE 9.2 mph - N/A   Overcast
4:56 AM 37.4 °F 32.8 °F 33.8 °F 87% 29.76 in 7.0 mi East 5.8 mph - N/A   Overcast
5:16 AM 35.6 °F 29.2 °F 33.8 °F 93% 29.76 in 6.0 mi East 8.1 mph - N/A   Overcast
5:36 AM - - - N/A% 29.75 in - Calm Calm - N/A   Unknown
5:56 AM 33.8 °F - 30.2 °F 87% 29.75 in 4.0 mi Calm Calm - N/A   Overcast
6:16 AM 33.8 °F - 30.2 °F 87% 29.75 in 4.0 mi Calm Calm - N/A   Overcast
6:36 AM 35.6 °F 28.0 °F 33.8 °F 93% 29.74 in 4.0 mi ENE 10.4 mph - N/A   Overcast
6:56 AM 35.6 °F 28.0 °F 33.8 °F 93% 29.74 in 4.0 mi East 10.4 mph - N/A   Overcast
7:16 AM 37.4 °F 30.8 °F 33.8 °F 87% 29.74 in 4.0 mi ENE 9.2 mph - N/A   Overcast
7:36 AM 37.4 °F 33.8 °F 33.8 °F 87% 29.74 in 4.0 mi East 4.6 mph - N/A   Overcast
7:56 AM 37.4 °F 30.8 °F 33.8 °F 87% 29.74 in 4.0 mi ENE 9.2 mph - N/A   Overcast
8:16 AM 37.4 °F 32.1 °F 33.8 °F 87% 29.74 in 4.0 mi ENE 6.9 mph - N/A   Overcast
8:36 AM 37.4 °F 32.8 °F 33.8 °F 87% 29.74 in 4.0 mi East 5.8 mph - N/A   Overcast
9:16 AM 37.4 °F 33.8 °F 33.8 °F 87% 29.74 in 5.0 mi East 4.6 mph - N/A   Overcast
9:36 AM 37.4 °F 32.8 °F 33.8 °F 87% 29.75 in 5.0 mi ENE 5.8 mph - N/A   Overcast
9:56 AM 37.4 °F 33.8 °F 33.8 °F 87% 29.75 in 5.0 mi ESE 4.6 mph - N/A   Overcast
10:16 AM 37.4 °F 31.4 °F 33.8 °F 87% 29.75 in 5.0 mi East 8.1 mph - N/A   Overcast
10:36 AM 37.4 °F 32.1 °F 33.8 °F 87% 29.75 in 5.0 mi East 6.9 mph 16.1 mph N/A   Overcast
10:56 AM 39.2 °F 33.6 °F 33.8 °F 81% 29.75 in 5.0 mi ENE 8.1 mph - N/A   Mostly Cloudy
11:16 AM 39.2 °F 34.2 °F 33.8 °F 81% 29.75 in 5.0 mi East 6.9 mph - N/A   Mostly Cloudy
11:36 AM 39.2 °F 33.6 °F 33.8 °F 81% 29.75 in 5.0 mi ESE 8.1 mph 19.6 mph N/A   Mostly Cloudy
11:56 AM 37.4 °F 29.8 °F 33.8 °F 87% 29.74 in 7.0 mi East 11.5 mph - N/A   Overcast
12:16 PM 39.2 °F 35.9 °F 33.8 °F 81% 29.75 in 7.0 mi East 4.6 mph - N/A   Overcast
12:36 PM 37.4 °F 32.8 °F 33.8 °F 87% 29.75 in 7.0 mi East 5.8 mph - N/A   Overcast
12:56 PM 37.4 °F 32.8 °F 33.8 °F 87% 29.75 in 7.0 mi ENE 5.8 mph - N/A   Overcast
1:16 PM 39.2 °F 35.9 °F 33.8 °F 81% 29.75 in 7.0 mi ENE 4.6 mph - N/A   Overcast
1:36 PM 37.4 °F 33.8 °F 35.6 °F 93% 29.75 in 7.0 mi ENE 4.6 mph - N/A   Overcast
1:56 PM 37.4 °F - 35.6 °F 93% 29.75 in 7.0 mi Calm Calm - N/A   Overcast
2:16 PM 37.4 °F 32.1 °F 35.6 °F 93% 29.74 in 7.0 mi ENE 6.9 mph - N/A   Overcast
2:36 PM 37.4 °F 32.8 °F 35.6 °F 93% 29.75 in 7.0 mi ESE 5.8 mph - N/A   Overcast
2:56 PM 37.4 °F - 33.8 °F 87% 29.75 in 7.0 mi Calm Calm - N/A   Overcast
3:16 PM 37.4 °F - 33.8 °F 87% 29.75 in 7.0 mi Calm Calm - N/A   Overcast
3:36 PM 37.4 °F 32.8 °F 33.8 °F 87% 29.75 in 7.0 mi SW 5.8 mph - N/A   Overcast
3:56 PM 37.4 °F 33.8 °F 33.8 °F 87% 29.75 in 5.0 mi West 4.6 mph - N/A   Overcast
4:16 PM 37.4 °F - 33.8 °F 87% 29.75 in 5.0 mi Calm Calm - N/A   Overcast
4:36 PM 35.6 °F 32.8 °F 35.6 °F 100% 29.75 in 5.0 mi WSW 3.5 mph - N/A   Overcast
4:56 PM 35.6 °F - 33.8 °F 93% 29.74 in 6.0 mi Calm Calm - N/A   Overcast
5:16 PM 35.6 °F - 33.8 °F 93% 29.74 in 6.0 mi Calm Calm - N/A   Overcast
5:36 PM 35.6 °F 32.8 °F 33.8 °F 93% 29.74 in 6.0 mi SSW 3.5 mph - N/A   Overcast
5:56 PM 35.6 °F - 33.8 °F 93% 29.74 in 7.0 mi Calm Calm - N/A   Overcast
6:36 PM 35.6 °F - 35.6 °F 100% 29.74 in 7.0 mi Calm Calm - N/A   Overcast
6:56 PM 35.6 °F - 33.8 °F 93% 29.74 in 7.0 mi Calm Calm - N/A   Overcast
7:16 PM 35.6 °F - 33.8 °F 93% 29.75 in 7.0 mi Calm Calm - N/A   Overcast
7:36 PM 35.6 °F - 33.8 °F 93% 29.75 in 7.0 mi Calm Calm - N/A   Overcast
7:56 PM 35.6 °F - 33.8 °F 93% 29.75 in 7.0 mi Calm Calm - N/A   Overcast
8:16 PM 35.6 °F - 33.8 °F 93% 29.75 in 7.0 mi Calm Calm - N/A   Overcast
8:36 PM 35.6 °F - 33.8 °F 93% 29.75 in 7.0 mi Calm Calm - N/A   Overcast
8:56 PM 35.6 °F - 33.8 °F 93% 29.75 in 7.0 mi Calm Calm - N/A   Overcast
9:16 PM 35.6 °F - 35.6 °F 100% 29.75 in 7.0 mi Calm Calm - N/A   Overcast
9:56 PM 35.6 °F - 33.8 °F 93% 29.76 in 7.0 mi Calm Calm - N/A   Overcast
10:16 PM 35.6 °F - 33.8 °F 93% 29.76 in 10.0 mi Calm Calm - N/A   Overcast
10:36 PM 35.6 °F - 33.8 °F 93% 29.76 in 10.0 mi Calm Calm - N/A   Overcast
10:56 PM - - - N/A% 29.76 in - Calm Calm - N/A   Unknown
11:16 PM 35.6 °F - 33.8 °F 93% 29.76 in 10.0 mi Calm Calm - N/A   Overcast
11:36 PM 35.6 °F - 33.8 °F 93% 29.77 in 10.0 mi Calm Calm - N/A   Overcast
11:56 PM 35.6 °F - 33.8 °F 93% 29.77 in 10.0 mi Calm Calm - N/A   Overcast